Columbus, OH

6:59 AM EST on February 13, 2016 (GMT -0500)
Rickenbacker International

Weather History for KLCK - February, 2013

Change the Weather History Date:

Friday, February 8, 2013

  Actual Average Record
Temperature  
Mean Temperature 38 °F -  
Max Temperature 45 °F 40 °F 64 °F (2001)
Min Temperature 30 °F 24 °F -5 °F (2007)
Degree Days  
Heating Degree Days 28    
Moisture  
Dew Point 28 °F    
Average Humidity 71    
Maximum Humidity 86    
Minimum Humidity 61    
Precipitation  
Precipitation 0.00 in - - ()
Sea Level Pressure  
Sea Level Pressure 30.01 in    
Wind  
Wind Speed 13 mph (WNW)    
Max Wind Speed 23 mph    
Max Gust Speed 29 mph    
Visibility 9 miles    
Events Rain    
Averages and records for this station are not official NWS values.
T = Trace of Precipitation, MM = Missing Value Source: NWS Daily Summary

Daily Weather History Graph

Daily Weather History Graph

Search for Another Location

Airport or City:

Trip Planner

Search our weather history database for the weather conditions in past years. The results will help you decide how hot, cold, wet, or windy it might be!

Date:

Astronomy

Feb. 08, 2013 Rise Set
Actual Time 7:32 AM EST 6:00 PM EST
Civil Twilight 7:04 AM EST 6:28 PM EST
Nautical Twilight 6:32 AM EST 7:00 PM EST
Astronomical Twilight 6:00 AM EST 7:31 PM EST
Moon 6:00 AM EST (2/8) 4:32 PM EST (2/8)
Length of Visible Light 11h 23m
Length of Day
10h 27m
Waning Crescent, 3% of the Moon is Illuminated
Feb 8
Waning Crescent
Feb 10
New
Feb 17
First Quarter
Feb 25
Full
Mar 4
Last Quarter

Hourly Weather History & Observations

Time (EST) Temp. Windchill Dew Point Humidity Pressure Visibility Wind Dir Wind Speed Gust Speed Precip Events Conditions
12:15 AM 42.1 °F 35.2 °F 32.0 °F 67% 29.81 in 10.0 mi SSE 12.7 mph - N/A   Clear
12:35 AM 43.7 °F 38.1 °F 32.5 °F 65% 29.82 in 10.0 mi SSE 10.4 mph - N/A   Clear
12:55 AM 43.9 °F 37.9 °F 32.7 °F 65% 29.81 in 10.0 mi SSE 11.5 mph - N/A   Clear
1:15 AM 43.9 °F 38.8 °F 33.1 °F 66% 29.81 in 10.0 mi South 9.2 mph - N/A   Scattered Clouds
1:35 AM 43.3 °F 38.6 °F 33.3 °F 68% 29.80 in 10.0 mi SSE 8.1 mph - N/A   Overcast
1:55 AM 43.5 °F 38.3 °F 33.4 °F 68% 29.80 in 10.0 mi South 9.2 mph - N/A   Overcast
2:15 AM 44.1 °F 39.0 °F 33.8 °F 67% 29.79 in 10.0 mi South 9.2 mph 16.1 mph N/A   Overcast
2:35 AM 44.6 °F 39.2 °F 34.0 °F 66% 29.78 in 10.0 mi South 10.4 mph - N/A   Overcast
2:55 AM 45.3 °F 39.3 °F 34.2 °F 65% 29.78 in 10.0 mi South 12.7 mph - N/A   Overcast
3:15 AM 45.7 °F 40.6 °F 34.2 °F 64% 29.78 in 10.0 mi South 10.4 mph - N/A   Overcast
3:35 AM 45.5 °F 39.9 °F 34.5 °F 65% 29.78 in 10.0 mi South 11.5 mph - N/A   Overcast
3:55 AM 45.7 °F 41.0 °F 34.7 °F 65% 29.77 in 10.0 mi South 9.2 mph - N/A   Overcast
4:35 AM 45.3 °F 40.6 °F 35.6 °F 69% 29.77 in 10.0 mi South 9.2 mph - N/A Rain Rain
4:55 AM 44.6 °F 40.2 °F 36.9 °F 74% 29.77 in 10.0 mi SSW 8.1 mph - N/A Rain Light Rain
5:15 AM 43.5 °F 38.9 °F 37.6 °F 80% 29.78 in 10.0 mi WSW 8.1 mph - N/A Rain Light Rain
5:35 AM 42.1 °F 37.7 °F 37.4 °F 83% 29.79 in 5.0 mi WSW 6.9 mph - N/A Rain Rain
5:55 AM 41.4 °F 36.2 °F 37.4 °F 86% 29.80 in 5.0 mi West 8.1 mph - N/A Rain Rain
6:15 AM 41.0 °F 35.2 °F 37.0 °F 86% 29.81 in 7.0 mi WNW 9.2 mph - N/A Rain Light Rain
6:35 AM 40.6 °F 32.3 °F 36.3 °F 85% 29.81 in 10.0 mi WNW 16.1 mph 20.7 mph N/A Rain Light Rain
7:15 AM 39.4 °F 31.8 °F 34.3 °F 82% 29.84 in 10.0 mi West 12.7 mph 17.3 mph N/A   Overcast
7:35 AM 38.7 °F 29.8 °F 34.0 °F 83% 29.86 in 4.0 mi WNW 16.1 mph 21.9 mph N/A   Overcast
7:55 AM 38.1 °F 29.1 °F 33.3 °F 83% 29.87 in 2.5 mi WNW 16.1 mph 27.6 mph N/A   Haze
8:15 AM 37.0 °F 27.4 °F 32.7 °F 84% 29.88 in 1.5 mi WNW 17.3 mph 25.3 mph N/A Rain Light Rain
8:35 AM 36.1 °F 26.9 °F 32.0 °F 85% 29.90 in 2.5 mi WNW 15.0 mph 21.9 mph N/A   Overcast
8:55 AM 36.3 °F 26.8 °F 32.0 °F 84% 29.91 in 4.0 mi WNW 16.1 mph 20.7 mph N/A   Haze
9:15 AM 36.5 °F 27.4 °F 32.0 °F 84% 29.92 in 4.0 mi WNW 15.0 mph 21.9 mph N/A   Haze
9:35 AM 36.5 °F 28.2 °F 32.0 °F 84% 29.92 in 4.0 mi WNW 12.7 mph 24.2 mph N/A   Haze
9:55 AM 36.5 °F 27.8 °F 32.0 °F 84% 29.93 in 4.0 mi WNW 13.8 mph 23.0 mph N/A   Haze
10:15 AM 36.7 °F 25.4 °F 31.6 °F 82% 29.94 in 5.0 mi WNW 23.0 mph - N/A   Haze
10:35 AM 36.7 °F 26.9 °F 31.1 °F 80% 29.95 in 5.0 mi WNW 17.3 mph 25.3 mph N/A   Haze
10:55 AM 36.5 °F 25.2 °F 30.4 °F 78% 29.97 in 7.0 mi WNW 23.0 mph 28.8 mph N/A   Overcast
11:15 AM 36.0 °F 26.7 °F 29.7 °F 78% 29.99 in 10.0 mi WNW 15.0 mph 26.5 mph N/A   Overcast
11:35 AM 35.8 °F 25.7 °F 28.6 °F 75% 30.00 in 10.0 mi WNW 17.3 mph 26.5 mph N/A   Overcast
11:55 AM 35.6 °F 25.2 °F 27.5 °F 72% 30.01 in 10.0 mi WNW 18.4 mph 26.5 mph N/A   Overcast
12:15 PM 35.6 °F 26.6 °F 26.8 °F 70% 30.01 in 10.0 mi WNW 13.8 mph 25.3 mph N/A   Overcast
12:35 PM 35.4 °F 26.0 °F 26.8 °F 71% 30.02 in 10.0 mi NW 15.0 mph 24.2 mph N/A   Overcast
1:15 PM 35.1 °F 25.5 °F 26.2 °F 70% 30.04 in 10.0 mi NW 15.0 mph 24.2 mph N/A   Overcast
1:35 PM 34.9 °F 24.6 °F 26.4 °F 71% 30.05 in 10.0 mi NW 17.3 mph 25.3 mph N/A   Overcast
1:55 PM 34.9 °F 26.2 °F 26.4 °F 71% 30.05 in 10.0 mi NW 12.7 mph - N/A   Overcast
2:15 PM 34.9 °F 26.2 °F 26.4 °F 71% 30.05 in 10.0 mi WNW 12.7 mph 23.0 mph N/A   Overcast
2:35 PM 34.9 °F 24.9 °F 26.6 °F 72% 30.06 in 10.0 mi NW 16.1 mph 23.0 mph N/A   Overcast
2:55 PM 34.7 °F 26.4 °F 26.2 °F 71% 30.06 in 10.0 mi NW 11.5 mph 19.6 mph N/A   Overcast
3:15 PM 34.5 °F 23.4 °F 26.4 °F 72% 30.07 in 10.0 mi NW 19.6 mph 25.3 mph N/A   Overcast
3:35 PM 34.3 °F 24.2 °F 25.3 °F 70% 30.09 in 10.0 mi NW 16.1 mph 24.2 mph N/A   Overcast
3:55 PM 34.2 °F 25.7 °F 25.0 °F 69% 30.10 in 10.0 mi NW 11.5 mph - N/A   Overcast
4:15 PM 34.2 °F 25.2 °F 25.2 °F 70% 30.10 in 10.0 mi NNW 12.7 mph - N/A   Overcast
4:35 PM 34.0 °F 24.2 °F 24.8 °F 69% 30.11 in 10.0 mi NNW 15.0 mph - N/A   Overcast
4:55 PM 33.8 °F 23.5 °F 24.4 °F 69% 30.12 in 10.0 mi NNW 16.1 mph - N/A   Overcast
5:15 PM 33.6 °F 24.1 °F 24.3 °F 69% 30.13 in 10.0 mi NNW 13.8 mph 19.6 mph N/A   Overcast
5:35 PM 33.3 °F 24.1 °F 23.4 °F 67% 30.15 in 10.0 mi NNW 12.7 mph - N/A   Overcast
5:55 PM 33.1 °F 22.2 °F 23.7 °F 68% 30.16 in 10.0 mi NW 17.3 mph 23.0 mph N/A   Overcast
6:15 PM 32.9 °F 24.1 °F 23.5 °F 68% 30.18 in 10.0 mi NNW 11.5 mph 20.7 mph N/A   Overcast
6:35 PM 32.9 °F 22.4 °F 23.4 °F 68% 30.18 in 10.0 mi NW 16.1 mph 20.7 mph N/A   Overcast
6:55 PM 32.4 °F 23.0 °F 22.8 °F 68% 30.20 in 10.0 mi NNW 12.7 mph 20.7 mph N/A   Overcast
7:15 PM 32.0 °F 20.5 °F 22.3 °F 67% 30.21 in 10.0 mi NW 18.4 mph - N/A   Overcast
7:35 PM 31.8 °F 20.2 °F 21.0 °F 64% 30.23 in 10.0 mi North 18.4 mph 24.2 mph N/A   Overcast
7:55 PM 31.6 °F 21.6 °F 20.8 °F 64% 30.23 in 10.0 mi North 13.8 mph 18.4 mph N/A   Overcast
8:15 PM 31.3 °F 22.7 °F 21.0 °F 66% 30.24 in 10.0 mi North 10.4 mph 18.4 mph N/A   Overcast
8:35 PM 31.3 °F 20.3 °F 21.6 °F 67% 30.25 in 10.0 mi NW 16.1 mph 19.6 mph N/A   Overcast
8:55 PM 30.9 °F 20.2 °F 21.0 °F 67% 30.26 in 10.0 mi NNW 15.0 mph 20.7 mph N/A   Overcast
9:15 PM 30.6 °F 19.8 °F 20.1 °F 65% 30.28 in 10.0 mi North 15.0 mph - N/A   Overcast
9:35 PM 30.2 °F 22.6 °F 20.1 °F 66% 30.28 in 10.0 mi NNW 8.1 mph - N/A   Overcast
9:55 PM 30.2 °F 21.3 °F 20.1 °F 66% 30.28 in 10.0 mi NW 10.4 mph - N/A   Overcast
10:15 PM 30.2 °F 18.9 °F 19.4 °F 64% 30.29 in 10.0 mi NNW 16.1 mph - N/A   Overcast
10:35 PM 30.2 °F 20.2 °F 18.7 °F 62% 30.29 in 10.0 mi NNW 12.7 mph 18.4 mph N/A   Overcast
10:55 PM 30.2 °F 19.3 °F 18.9 °F 63% 30.28 in 10.0 mi NNW 15.0 mph 18.4 mph N/A   Overcast
11:15 PM 30.2 °F 20.8 °F 18.3 °F 61% 30.29 in 10.0 mi NNW 11.5 mph - N/A   Overcast
11:35 PM 30.2 °F 21.3 °F 18.1 °F 61% 30.29 in 10.0 mi NNW 10.4 mph - N/A   Overcast
11:55 PM 30.2 °F 23.4 °F 18.3 °F 61% 30.30 in 10.0 mi NNW 6.9 mph - N/A   Overcast